When you browse on this site, cookies collect data to enhance your experience and personalize the content and advertising you see.
Visit our Privacy Policy to learn more. By continuing to use the site, you agree to this use of cookies and data.
  • In Austria
  • List of Countries
  • For 7 days
  • Water Temperature
  • Weather Map
  • News
  • Weather Widgets
  • user-avatar
    Login

    Hourly Weather El Llano

    Today, 24 January, Friday

    Time Temperature Precipitation Wind Pressure Humidity
    00:00 +12°C° 0.2 mm 1 mps 592 mmHg 84%
    01:00 +12°C° 0.2 mm 1 mps 592 mmHg 84%
    02:00 +12°C° 0.2 mm 1 mps 591 mmHg 84%
    03:00 +12°C° 0 mm 1 mps 591 mmHg 86%
    04:00 +10°C° 0 mm 0 mps 591 mmHg 88%
    05:00 +10°C° 0 mm 0 mps 591 mmHg 89%
    06:00 +10°C° 0 mm 0 mps 592 mmHg 86%
    07:00 +12°C° 0 mm 1 mps 593 mmHg 82%
    08:00 +13°C° 0 mm 1 mps 594 mmHg 78%
    09:00 +14°C° 0 mm 1 mps 594 mmHg 71%
    10:00 +16°C° 0 mm 1 mps 595 mmHg 63%
    11:00 +17°C° 0 mm 2 mps 595 mmHg 56%
    12:00 +18°C° 0.1 mm 2 mps 595 mmHg 53%
    13:00 +18°C° 0.1 mm 2 mps 594 mmHg 50%
    14:00 +19°C° 0.1 mm 2 mps 594 mmHg 46%
    15:00 +18°C° 0.1 mm 2 mps 593 mmHg 51%
    16:00 +17°C° 0.1 mm 3 mps 593 mmHg 56%
    17:00 +17°C° 0.1 mm 3 mps 593 mmHg 61%
    18:00 +15°C° 0.1 mm 2 mps 593 mmHg 70%
    19:00 +14°C° 0.1 mm 2 mps 593 mmHg 79%
    20:00 +13°C° 0.1 mm 2 mps 593 mmHg 87%
    21:00 +13°C° 0 mm 1 mps 593 mmHg 88%
    22:00 +12°C° 0 mm 1 mps 593 mmHg 89%
    23:00 +12°C° 0 mm 1 mps 593 mmHg 89%

    Tomorrow, 25 January, Saturday

    Time Temperature Precipitation Wind Pressure Humidity
    00:00 +12°C° 0 mm 1 mps 592 mmHg 88%
    01:00 +12°C° 0 mm 1 mps 592 mmHg 87%
    02:00 +11°C° 0 mm 0 mps 592 mmHg 85%
    03:00 +11°C° 0 mm 0 mps 592 mmHg 85%
    04:00 +11°C° 0 mm 0 mps 592 mmHg 86%
    05:00 +10°C° 0 mm 0 mps 592 mmHg 86%
    06:00 +11°C° 0 mm 0 mps 593 mmHg 82%
    07:00 +13°C° 0 mm 1 mps 593 mmHg 77%
    08:00 +14°C° 0 mm 1 mps 594 mmHg 73%
    09:00 +16°C° 0 mm 1 mps 595 mmHg 63%
    10:00 +18°C° 0 mm 2 mps 595 mmHg 53%
    11:00 +19°C° 0 mm 2 mps 596 mmHg 43%
    12:00 +21°C° 0 mm 3 mps 596 mmHg 39%
    13:00 +22°C° 0 mm 3 mps 595 mmHg 34%
    14:00 +23°C° 0 mm 4 mps 595 mmHg 29%
    15:00 +22°C° 0 mm 4 mps 595 mmHg 32%
    16:00 +21°C° 0 mm 4 mps 594 mmHg 34%
    17:00 +20°C° 0 mm 4 mps 594 mmHg 37%
    18:00 +18°C° 0 mm 3 mps 594 mmHg 42%
    19:00 +17°C° 0 mm 2 mps 594 mmHg 47%
    20:00 +15°C° 0 mm 2 mps 594 mmHg 53%
    21:00 +15°C° 0 mm 2 mps 593 mmHg 55%
    22:00 +14°C° 0 mm 1 mps 593 mmHg 57%
    23:00 +13°C° 0 mm 1 mps 593 mmHg 59%

    Day after tomorrow, 26 January, Sunday

    Time Temperature Precipitation Wind Pressure Humidity
    00:00 +13°C° 0 mm 1 mps 593 mmHg 60%
    01:00 +12°C° 0 mm 1 mps 592 mmHg 61%
    02:00 +12°C° 0 mm 1 mps 592 mmHg 63%
    03:00 +12°C° 0 mm 1 mps 592 mmHg 64%
    04:00 +11°C° 0 mm 1 mps 592 mmHg 66%
    05:00 +11°C° 0 mm 1 mps 592 mmHg 67%
    06:00 +12°C° 0 mm 1 mps 592 mmHg 63%
    07:00 +13°C° 0 mm 1 mps 593 mmHg 59%
    08:00 +14°C° 0 mm 1 mps 594 mmHg 55%
    09:00 +16°C° 0 mm 1 mps 595 mmHg 49%
    10:00 +19°C° 0 mm 1 mps 595 mmHg 44%
    11:00 +21°C° 0 mm 1 mps 595 mmHg 39%
    12:00 +20°C° 0 mm 2 mps 595 mmHg 39%
    13:00 +20°C° 0 mm 3 mps 594 mmHg 39%
    14:00 +20°C° 0 mm 3 mps 593 mmHg 40%
    15:00 +19°C° 0 mm 3 mps 593 mmHg 44%
    16:00 +18°C° 0 mm 3 mps 593 mmHg 48%
    17:00 +17°C° 0 mm 3 mps 593 mmHg 52%
    18:00 +17°C° 0 mm 2 mps 593 mmHg 55%
    19:00 +16°C° 0 mm 2 mps 593 mmHg 59%
    20:00 +15°C° 0 mm 1 mps 593 mmHg 62%
    21:00 +14°C° 0 mm 1 mps 593 mmHg 65%
    22:00 +13°C° 0 mm 1 mps 593 mmHg 67%
    23:00 +13°C° 0 mm 1 mps 592 mmHg 70%

    27 January, Monday

    Time Temperature Precipitation Wind Pressure Humidity
    00:00 +12°C° 0 mm 1 mps 592 mmHg 72%
    01:00 +12°C° 0 mm 1 mps 592 mmHg 73%
    02:00 +12°C° 0 mm 1 mps 591 mmHg 75%
    03:00 +11°C° 0 mm 1 mps 591 mmHg 75%
    04:00 +11°C° 0 mm 1 mps 591 mmHg 76%
    05:00 +11°C° 0 mm 1 mps 591 mmHg 76%
    06:00 +12°C° 0 mm 1 mps 592 mmHg 70%
    07:00 +13°C° 0 mm 1 mps 593 mmHg 65%
    08:00 +14°C° 0 mm 1 mps 594 mmHg 59%
    09:00 +16°C° 0 mm 1 mps 594 mmHg 50%
    10:00 +19°C° 0 mm 1 mps 594 mmHg 40%
    11:00 +21°C° 0 mm 1 mps 595 mmHg 31%
    12:00 +21°C° 0 mm 2 mps 595 mmHg 27%
    13:00 +23°C° 0 mm 2 mps 594 mmHg 22%
    14:00 +24°C° 0 mm 3 mps 594 mmHg 18%
    15:00 +22°C° 0 mm 3 mps 594 mmHg 21%
    16:00 +22°C° 0 mm 3 mps 593 mmHg 25%
    17:00 +21°C° 0 mm 3 mps 593 mmHg 28%
    18:00 +19°C° 0 mm 3 mps 593 mmHg 35%
    19:00 +17°C° 0 mm 2 mps 593 mmHg 42%
    20:00 +15°C° 0 mm 2 mps 592 mmHg 49%
    21:00 +14°C° 0 mm 1 mps 592 mmHg 51%
    22:00 +14°C° 0 mm 1 mps 592 mmHg 53%
    23:00 +13°C° 0 mm 1 mps 591 mmHg 54%

    28 January, Tuesday

    Time Temperature Precipitation Wind Pressure Humidity
    00:00 +12°C° 0 mm 1 mps 591 mmHg 53%
    01:00 +12°C° 0 mm 1 mps 590 mmHg 52%
    02:00 +12°C° 0 mm 1 mps 590 mmHg 51%
    03:00 +11°C° 0 mm 1 mps 590 mmHg 51%
    04:00 +11°C° 0 mm 1 mps 590 mmHg 52%
    05:00 +10°C° 0 mm 1 mps 590 mmHg 53%
    06:00 +12°C° 0 mm 1 mps 591 mmHg 49%
    07:00 +13°C° 0 mm 1 mps 592 mmHg 44%
    08:00 +13°C° 0 mm 0 mps 593 mmHg 40%
    09:00 +16°C° 0 mm 1 mps 593 mmHg 36%
    10:00 +19°C° 0 mm 1 mps 594 mmHg 32%
    11:00 +21°C° 0 mm 1 mps 594 mmHg 28%
    12:00 +21°C° 0 mm 1 mps 594 mmHg 26%
    13:00 +21°C° 0 mm 2 mps 593 mmHg 24%
    14:00 +23°C° 0 mm 2 mps 593 mmHg 22%
    15:00 +21°C° 0 mm 3 mps 593 mmHg 24%
    16:00 +20°C° 0 mm 3 mps 593 mmHg 27%
    17:00 +19°C° 0 mm 3 mps 593 mmHg 29%
    18:00 +17°C° 0 mm 3 mps 593 mmHg 45%
    19:00 +14°C° 0 mm 3 mps 592 mmHg 60%
    20:00 +14°C° 0 mm 2 mps 592 mmHg 76%
    21:00 +13°C° 0 mm 2 mps 592 mmHg 81%
    22:00 +13°C° 0 mm 1 mps 592 mmHg 86%
    23:00 +12°C° 0 mm 1 mps 592 mmHg 91%

    29 January, Wednesday

    Time Temperature Precipitation Wind Pressure Humidity
    00:00 +12°C° 0 mm 1 mps 592 mmHg 91%
    01:00 +12°C° 0 mm 1 mps 592 mmHg 91%
    02:00 +12°C° 0 mm 1 mps 592 mmHg 91%
    03:00 +12°C° 0 mm 1 mps 591 mmHg 91%
    04:00 +11°C° 0 mm 1 mps 591 mmHg 90%
    05:00 +11°C° 0 mm 1 mps 591 mmHg 90%
    06:00 +11°C° 0 mm 1 mps 592 mmHg 86%
    07:00 +12°C° 0 mm 1 mps 592 mmHg 82%
    08:00 +12°C° 0 mm 1 mps 592 mmHg 78%
    09:00 +14°C° 0 mm 1 mps 593 mmHg 67%
    10:00 +16°C° 0 mm 1 mps 593 mmHg 55%
    11:00 +20°C° 0 mm 1 mps 594 mmHg 44%
    12:00 +20°C° 0 mm 2 mps 594 mmHg 37%
    13:00 +21°C° 0 mm 3 mps 594 mmHg 30%
    14:00 +23°C° 0 mm 4 mps 593 mmHg 23%
    15:00 +21°C° 0 mm 4 mps 593 mmHg 26%
    16:00 +20°C° 0 mm 4 mps 592 mmHg 29%
    17:00 +19°C° 0 mm 4 mps 592 mmHg 33%
    18:00 +17°C° 0 mm 3 mps 592 mmHg 40%
    19:00 +15°C° 0 mm 2 mps 591 mmHg 48%
    20:00 +14°C° 0 mm 2 mps 591 mmHg 56%
    21:00 +13°C° 0 mm 2 mps 591 mmHg 57%
    22:00 +13°C° 0 mm 2 mps 591 mmHg 59%
    23:00 +12°C° 0 mm 2 mps 590 mmHg 61%
    Show more